sat.trackr.live / text

‹ back to catalog

STARLINK-11113 [DTC]

NORAD 59947 · 2024-107C

PAYLOAD ACTIVE UNKNOWN

§ Identity

Operator
Country
US
Launch date
2024-06-05
Launch site
AFETR
Launch vehicle
Mass (kg)
RCS (m²)

Purposes: comms

External: N2YO · Heavens-Above · Gunter

§ Orbital elements

Epoch: 2026-05-24T23:34:55.473600Z

Period
91.74 min
Inclination
53.1597°
Eccentricity
0.0001390
Mean motion
15.69706194 rev/d
Perigee alt
358.8 km
Apogee alt
360.7 km
Semi-major
6,737.9 km
B*
7.8978e-6
RAAN
234.7918°
Arg perigee
65.1791°
Mean anomaly
294.9371°
Rev number
11,413

§ Raw data

STARLINK-11113 [DTC]1 59947U 24107C   26144.98258650  .00000368  00000+0  78978-5 0  99982 59947  53.1597 234.7918 0001390  65.1791 294.9371 15.69706194114135

JSON: /api/v1/satellites/59947 · /tle

For live sub-satellite position, see the globe view (requires WebGL).

§ Visibility from observer

Set your observer location to see the next 7 days of passes ≥ 10°. The values pass through the URL so the page stays shareable.

No JS? Fill the form by hand. The geolocation button needs JavaScript.